Orbital Elements at Epoch 2459200.5 (2020-Dec-17.0) TDB
Reference: JPL 22 (heliocentric ecliptic J2000)
Element | Value | Uncertainty (1-sigma) | Units |
e | .03792986018122915 | 3.5412e-08 | |
a | 2.639279220437178 | 1.3999e-08 | au |
q | 2.539171728626772 | 9.1935e-08 | au |
i | 3.291952438182828 | 5.6359e-06 | deg |
node | 16.69570246872811 | 7.0536e-05 | deg |
peri | 68.82095270343886 | 0.00010628 | deg |
M | 139.925693145566 | 7.9033e-05 | deg |
tp | 2458591.774632186260 (2019-Apr-18.27463219) | 0.00034331 | TDB |
period | 1566.125044561844 4.29 | 1.246e-05 3.411e-08 | d yr |
n | .229866702694048 | 1.8288e-09 | deg/d |
Q | 2.739386712247583 | 1.453e-08 | au |
|
| | Orbit Determination Parameters
Additional Information
|